Torna al catalogo

COSMOS 397 DEB *

AttivoLEO
NORAD 5416·DEBRIS·🇷🇺 Russia

Lanciato Feb 25, 1971 da Baikonur Cosmodrome

Loading…

Prossimi Passaggi (prossime 24 ore)

TLE

AggiornatoSource: Space-Track

Epoca: Sep 13, 2026, 02:57 UTC

1 05416U 71015BN  26256.12326701  .00000605  00000-0  63828-3 0  9994
2 05416  65.7837 135.6250 0073522 272.6194 241.4363 13.80917333304969

Traccia COSMOS 397 DEB * in tempo reale con AllMySat

Download on the App Store